Wind_Speed
36 36 36 37 37 37 35 32 30 29 29 30 29 28 26 25 24 23 21 20 20 19 18 18 17 17 16 15 15 15 14 13 13 13 13 13 13 14 14 14 15 15 15 16 16 17 17 17 17
36 37 38 38 38 37 34 31 31 31 31 31 30 29 28 27 26 24 23 22 21 21 20 19 19 18 18 17 17 16 16 16 15 15 15 15 15 15 16 16 17 17 17 17 18 18 18 19 19
37 38 39 39 39 36 33 32 31 32 32 31 30 29 29 28 27 26 25 24 23 22 22 21 20 20 19 19 19 18 17 17 17 17 17 17 17 18 18 18 18 19 19 19 20 20 20 20 21
37 38 39 40 37 35 33 33 33 32 32 32 31 31 30 29 28 27 26 25 24 24 23 22 22 22 21 21 20 20 19 19 19 18 18 19 19 19 20 20 20 20 21 21 21 21 22 22 22
37 38 39 38 36 34 34 34 35 34 33 33 32 31 31 30 29 28 28 27 26 25 24 24 23 23 23 22 22 21 21 21 20 20 20 20 21 21 21 21 22 22 22 22 22 23 23 23 23
39 39 38 36 35 34 35 35 36 35 34 34 33 33 31 30 30 29 29 28 28 27 26 25 25 24 24 24 23 23 22 22 22 22 22 22 22 22 22 22 22 23 23 23 23 24 24 24 25
39 39 38 36 35 35 35 36 36 36 35 35 34 34 32 32 31 31 30 30 29 29 28 27 27 26 25 25 25 24 24 24 23 23 23 23 23 23 23 23 24 24 24 24 24 24 25 25 26
39 40 39 36 35 35 36 36 37 37 36 36 35 34 33 32 32 32 31 31 31 30 29 29 28 27 26 26 25 25 24 24 24 24 24 24 24 24 24 25 24 24 24 25 25 25 25 26 27
40 41 39 36 35 35 36 37 37 38 37 36 35 35 34 33 33 33 32 32 32 31 30 30 29 29 27 26 26 25 25 25 25 25 25 25 25 25 25 25 25 25 25 26 26 26 27 28 29
41 41 38 36 36 36 37 37 37 37 37 37 36 35 35 34 33 33 33 32 32 32 31 30 30 29 28 28 27 27 26 26 26 26 25 25 25 25 26 26 26 26 27 27 28 28 29 29 30
42 40 38 38 38 38 38 38 38 38 37 37 37 36 35 34 33 33 33 33 32 32 31 30 30 29 29 28 28 28 28 27 27 27 27 26 27 27 27 27 27 28 28 29 30 30 31 31 32
41 41 40 39 39 40 39 39 38 38 37 37 38 37 36 34 33 33 33 33 32 32 31 30 30 30 30 30 29 29 29 28 28 28 28 27 27 27 28 28 29 30 30 30 31 31 32 33 33
42 41 41 41 41 40 40 40 40 39 38 38 37 37 37 36 35 34 34 33 33 32 32 31 31 31 31 30 30 30 29 29 29 28 28 28 28 28 29 29 30 30 31 31 32 33 33 34 35
42 41 41 41 41 41 41 41 41 39 39 38 38 37 37 37 36 35 35 34 33 33 32 32 32 32 31 31 31 31 30 30 30 29 29 29 29 29 29 30 30 30 31 32 33 33 34 35 36
41 42 42 42 42 42 42 42 41 40 40 39 38 38 37 37 36 36 35 35 34 33 33 33 33 33 32 32 32 32 32 31 31 31 31 30 30 30 30 30 31 32 32 33 34 34 35 36 37
41 42 42 42 42 42 43 42 41 41 41 40 39 38 37 36 36 36 36 35 35 34 33 34 33 33 33 33 33 33 33 32 32 31 31 31 31 31 31 31 32 33 33 34 34 35 36 36 37
42 42 41 41 42 42 43 41 40 41 41 40 40 39 38 37 36 35 35 35 35 34 34 34 34 34 33 33 33 33 33 33 32 32 31 32 32 32 32 32 33 34 34 34 34 35 35 36 36
41 41 41 41 41 42 42 41 41 41 41 40 40 39 38 38 37 36 35 35 35 35 34 34 34 34 33 33 33 33 33 33 32 32 32 32 32 32 33 33 34 34 34 34 34 35 36 36 36
40 41 40 40 41 42 42 42 41 41 41 40 40 40 39 38 38 37 36 35 35 35 34 34 33 33 33 33 32 32 32 32 32 32 32 32 32 33 33 33 34 34 34 35 35 36 36 36 36
40 40 40 39 40 41 41 42 42 41 40 40 40 40 40 39 38 38 37 36 35 34 34 34 33 33 33 32 32 32 32 32 32 32 32 32 33 33 33 34 34 34 35 35 36 36 36 36 36
39 39 40 40 39 40 41 41 41 41 41 40 40 40 40 40 39 38 38 37 36 35 34 33 33 33 33 32 32 32 31 31 31 31 31 32 33 33 33 34 34 34 35 35 35 35 35 36 36
37 37 38 40 40 41 42 42 41 41 41 40 40 40 40 40 40 39 38 37 36 35 34 33 33 33 33 32 32 31 31 31 31 31 32 32 33 33 33 33 34 34 34 34 35 35 35 35 36
35 35 36 38 39 41 42 42 40 40 40 40 39 39 40 40 40 39 38 37 36 35 34 34 33 33 32 32 32 32 31 32 32 32 32 33 33 33 33 33 34 34 34 35 34 34 34 35 36
34 34 36 36 38 41 40 41 40 39 39 39 39 39 38 39 39 39 38 37 37 36 35 34 33 33 33 32 32 32 32 32 32 32 33 33 33 33 33 34 34 34 34 34 34 35 35 35 35
33 34 34 36 38 39 39 40 40 38 38 38 38 38 38 38 39 38 38 37 36 36 35 34 34 33 33 33 32 32 32 32 32 33 33 33 33 34 34 34 34 35 35 34 34 35 35 34 34
32 33 33 34 36 36 37 38 38 37 37 37 37 37 38 38 38 39 38 38 37 36 35 35 34 34 34 33 33 33 33 33 33 33 33 33 33 34 34 34 35 35 35 35 34 35 34 34 33
30 32 32 33 34 35 36 36 35 34 34 35 35 36 37 37 38 39 38 38 37 36 36 35 35 35 34 34 34 34 33 33 33 33 33 33 34 34 34 34 34 34 34 34 34 34 34 34 34
29 31 32 32 33 34 35 35 34 33 32 33 34 35 36 37 37 38 38 38 38 37 36 36 36 35 35 35 35 34 34 33 33 33 33 34 34 34 34 33 33 34 34 34 34 33 33 34 34
28 30 32 31 31 33 34 34 33 32 32 33 33 33 35 36 36 37 38 38 37 37 36 36 36 36 35 35 35 34 34 34 33 33 33 33 33 33 33 33 33 33 33 34 34 33 33 34 34
27 29 30 30 30 31 32 32 31 31 32 32 32 32 33 35 35 36 37 37 37 37 36 36 36 36 35 35 35 35 34 34 34 34 33 33 33 33 33 33 33 33 33 34 34 33 33 33 33
Wind_Direction
235 235 235 235 236 237 238 237 236 235 235 235 236 238 240 242 242 242 242 241 242 242 242 241 242 243 245 247 248 250 253 255 258 260 263 267 269 272 274 277 280 283 285 287 289 290 290 291 291
235 235 235 235 236 237 237 237 236 235 236 236 237 237 238 239 240 241 241 240 240 241 241 242 242 244 245 248 250 252 254 256 258 260 263 266 268 271 273 275 277 280 282 285 287 288 289 290 290
234 234 235 235 236 237 237 237 237 236 236 237 237 237 238 238 239 240 240 240 240 241 241 242 243 244 246 248 251 253 254 256 259 261 263 266 269 271 273 274 276 278 280 282 284 285 287 287 288
234 234 235 236 235 235 236 236 236 235 236 236 237 236 237 237 238 239 239 239 240 241 241 243 244 246 247 249 251 253 255 257 259 262 264 267 269 270 271 273 275 277 279 281 283 284 285 285 286
235 235 235 236 235 234 235 235 235 235 235 236 237 236 236 237 238 239 240 240 240 240 241 243 244 246 248 250 252 254 256 258 260 262 265 267 268 269 270 272 274 276 278 280 281 283 284 284 285
235 235 236 236 235 234 234 235 235 235 235 236 236 236 236 237 238 239 240 240 240 240 241 243 244 246 248 251 253 254 256 258 261 263 264 266 268 269 271 273 275 276 278 280 281 282 282 283 285
235 235 236 235 234 233 234 234 235 235 235 235 236 236 236 236 237 238 239 240 241 241 242 243 244 246 248 251 253 254 257 259 261 262 264 266 268 270 272 273 275 276 278 279 280 280 282 283 285
235 235 234 233 233 232 233 234 234 234 235 235 236 236 236 237 238 238 240 240 241 242 243 244 245 247 249 251 252 255 257 259 260 262 264 266 268 270 271 273 274 276 277 278 279 280 281 284 285
235 235 234 233 232 232 232 233 234 234 234 235 236 236 237 237 237 238 239 240 241 242 243 244 245 247 248 250 252 254 256 257 259 262 264 266 268 270 271 273 274 276 277 279 280 281 282 284 285
234 235 233 232 231 231 232 233 233 234 234 234 235 236 236 237 238 238 238 239 240 241 242 243 244 246 248 249 252 253 255 257 259 261 263 265 267 269 271 273 274 276 277 279 280 281 283 284 285
235 235 233 232 231 231 232 233 233 234 234 235 235 235 236 236 236 237 237 238 239 241 242 243 244 246 247 249 251 253 255 257 258 260 262 265 267 269 271 273 275 276 278 279 280 282 283 284 285
235 234 233 232 232 232 232 233 233 233 234 234 234 234 235 235 236 236 237 237 239 240 241 242 244 245 247 249 250 252 254 256 258 260 262 265 267 269 272 274 276 277 278 280 281 282 283 284 285
234 234 233 233 233 232 232 232 233 233 233 233 234 234 235 236 236 236 237 238 238 239 240 242 243 245 247 249 251 252 254 256 258 260 262 265 267 270 273 275 277 278 279 280 281 283 284 285 285
234 233 233 232 233 233 233 232 232 232 232 232 233 234 234 235 236 236 236 237 238 240 241 242 244 246 248 250 252 253 255 257 258 260 262 265 268 271 273 275 277 279 280 281 283 284 284 285 286
233 233 233 232 233 233 233 232 232 232 232 232 233 233 234 235 236 236 236 237 238 240 241 243 245 246 248 251 253 254 256 257 259 260 263 265 268 271 274 276 278 279 280 282 283 284 285 286 287
233 233 232 232 233 233 233 232 232 232 232 232 233 233 234 234 235 236 237 238 239 240 242 244 246 248 249 251 253 255 256 258 260 261 262 265 269 272 274 276 278 279 280 282 283 284 286 286 287
232 232 233 232 233 233 233 232 231 232 232 232 232 233 234 234 235 236 237 239 240 241 242 244 247 249 250 252 253 255 256 258 260 262 263 265 269 271 273 276 278 280 281 283 284 285 286 287 287
231 233 233 233 233 233 233 232 231 231 232 232 232 233 233 234 235 236 238 239 240 242 243 245 247 249 251 253 255 256 257 258 260 262 265 268 269 272 274 276 279 280 281 282 284 286 287 287 288
233 233 232 232 233 233 232 232 232 232 232 232 232 233 233 234 235 237 238 239 241 242 244 246 248 249 251 253 256 257 258 259 260 263 265 268 269 271 274 277 279 280 281 282 284 285 287 287 287
233 232 232 231 232 233 232 232 232 232 232 232 233 233 234 234 235 237 238 239 241 243 244 246 248 249 251 253 255 257 257 258 260 263 265 268 271 273 275 277 279 280 281 282 284 285 286 287 287
232 233 232 232 233 234 234 232 232 233 232 232 233 233 234 234 235 236 237 239 241 243 244 246 247 249 250 252 254 256 257 258 261 263 266 269 272 274 276 278 279 280 281 283 284 285 286 287 288
231 232 232 233 234 234 234 234 232 233 233 233 234 234 234 234 235 236 237 239 241 243 244 245 246 248 249 251 253 255 258 259 261 263 266 269 272 275 277 279 280 280 282 283 284 285 286 287 288
230 230 232 233 234 235 233 235 231 232 233 233 234 235 235 235 235 236 237 239 241 242 244 245 245 246 248 251 253 256 258 259 260 263 266 269 272 275 278 280 280 281 282 283 284 285 286 288 289
230 230 232 234 235 235 233 235 231 231 232 233 234 235 235 235 235 236 237 238 240 241 243 245 246 247 248 251 254 256 258 259 261 264 267 270 272 275 278 280 281 281 282 282 283 284 286 288 289
231 230 232 234 234 235 233 235 233 232 233 234 235 235 235 235 235 236 237 238 239 241 243 245 246 247 249 251 253 256 258 260 262 265 268 271 273 275 277 279 280 280 281 282 282 284 286 288 289
232 231 233 235 236 235 234 235 235 234 235 236 236 236 236 236 235 235 236 237 239 241 243 244 246 248 250 251 253 256 259 261 263 265 268 270 273 275 277 279 279 279 280 280 282 283 285 287 289
230 231 233 236 237 238 237 237 237 237 237 238 238 237 237 236 236 236 237 238 239 240 242 244 246 248 249 251 253 256 259 261 263 265 268 270 273 275 276 278 279 279 279 280 282 283 285 286 289
232 233 232 234 238 238 237 237 238 238 238 239 238 237 236 236 236 236 237 238 239 240 242 244 246 248 250 252 254 256 258 261 263 266 268 271 273 275 276 278 279 279 280 282 283 283 284 286 289
232 231 231 234 237 238 237 237 238 239 238 237 237 237 237 237 236 237 238 239 240 241 242 244 246 248 250 252 254 256 258 260 263 266 269 272 274 274 275 277 279 280 280 281 283 283 285 286 288
235 233 232 233 236 238 239 239 240 241 239 237 236 237 237 237 237 237 237 239 240 242 243 244 245 247 250 252 254 257 258 260 263 265 268 271 273 274 275 276 279 280 280 280 282 283 285 287 288
Height
5791 5794 5797 5800 5803 5806 5810 5815 5819 5822 5824 5826 5828 5831 5834 5837 5840 5845 5845 5846 5847 5849 5850 5852 5853 5855 5856 5858 5859 5860 5861 5862 5863 5864 5865 5865 5866 5866 5867 5867 5867 5868 5868 5868 5868 5868 5868 5868 5867
5784 5787 5791 5794 5797 5801 5807 5811 5814 5816 5819 5821 5824 5827 5830 5832 5835 5838 5840 5841 5843 5845 5847 5849 5850 5852 5853 5855 5856 5857 5858 5859 5860 5861 5862 5863 5863 5864 5864 5864 5865 5865 5865 5865 5865 5865 5865 5865 5864
5778 5781 5784 5787 5791 5797 5802 5806 5808 5811 5813 5816 5820 5823 5826 5828 5831 5833 5836 5838 5840 5842 5843 5845 5847 5849 5850 5852 5853 5854 5856 5857 5857 5858 5859 5860 5860 5860 5861 5861 5861 5862 5862 5862 5862 5862 5861 5861 5861
5771 5774 5778 5782 5787 5793 5796 5800 5802 5805 5808 5811 5815 5818 5821 5825 5827 5829 5831 5834 5836 5838 5840 5842 5843 5845 5847 5848 5850 5851 5852 5853 5854 5855 5856 5856 5857 5857 5857 5858 5858 5858 5858 5858 5858 5858 5857 5857 5857
5764 5767 5771 5776 5782 5787 5790 5793 5796 5800 5803 5806 5809 5813 5816 5819 5822 5824 5827 5829 5832 5834 5836 5838 5840 5841 5843 5845 5846 5848 5849 5850 5851 5851 5852 5852 5853 5853 5854 5854 5854 5854 5854 5854 5854 5854 5853 5853 5852
5757 5761 5765 5771 5777 5781 5784 5787 5790 5794 5797 5801 5804 5807 5811 5814 5817 5819 5822 5824 5827 5829 5831 5833 5835 5837 5839 5841 5842 5843 5845 5846 5847 5847 5848 5848 5849 5849 5849 5850 5850 5850 5850 5850 5849 5849 5849 5848 5848
5751 5755 5759 5765 5770 5774 5777 5780 5784 5788 5792 5795 5798 5802 5805 5809 5812 5814 5817 5819 5822 5824 5827 5829 5831 5833 5835 5836 5838 5839 5840 5841 5842 5843 5844 5844 5844 5845 5845 5845 5845 5845 5845 5845 5845 5844 5844 5843 5843
5743 5748 5752 5758 5763 5767 5771 5774 5777 5781 5786 5789 5792 5796 5800 5804 5806 5809 5812 5814 5817 5819 5822 5824 5826 5828 5830 5832 5833 5834 5836 5837 5838 5838 5839 5840 5840 5840 5840 5841 5841 5841 5840 5840 5840 5839 5839 5838 5837
5735 5741 5745 5752 5757 5761 5763 5767 5771 5775 5779 5783 5787 5791 5794 5797 5800 5803 5806 5809 5811 5814 5817 5819 5821 5823 5825 5827 5828 5830 5831 5832 5833 5834 5834 5835 5835 5835 5836 5836 5836 5835 5835 5835 5834 5834 5833 5833 5832
5727 5733 5740 5745 5750 5753 5756 5760 5764 5769 5773 5777 5781 5784 5787 5791 5794 5797 5800 5803 5806 5808 5811 5814 5816 5818 5820 5821 5823 5824 5826 5827 5828 5829 5829 5830 5830 5830 5831 5831 5830 5830 5830 5829 5829 5828 5827 5826 5825
5720 5726 5733 5737 5741 5745 5749 5753 5757 5762 5766 5771 5774 5778 5781 5785 5788 5792 5795 5797 5800 5803 5805 5808 5811 5813 5814 5816 5818 5819 5820 5821 5822 5823 5824 5824 5825 5825 5825 5825 5825 5824 5824 5823 5822 5822 5821 5820 5819
5712 5719 5724 5729 5733 5737 5742 5746 5751 5755 5761 5764 5767 5771 5775 5779 5782 5786 5788 5791 5794 5797 5800 5802 5805 5807 5809 5810 5812 5813 5815 5816 5817 5818 5818 5819 5819 5819 5819 5819 5819 5818 5818 5817 5816 5815 5814 5813 5811
5704 5710 5715 5720 5725 5729 5734 5739 5743 5748 5753 5756 5760 5764 5768 5772 5776 5779 5782 5785 5788 5791 5794 5797 5799 5801 5803 5804 5806 5807 5809 5810 5811 5812 5812 5813 5813 5813 5813 5813 5813 5812 5811 5810 5809 5808 5806 5805 5804
5696 5701 5707 5711 5716 5721 5726 5731 5736 5742 5745 5749 5753 5757 5761 5765 5769 5773 5776 5779 5782 5785 5788 5790 5793 5795 5796 5798 5800 5801 5803 5804 5805 5806 5806 5807 5807 5807 5807 5806 5806 5805 5804 5803 5801 5800 5799 5797 5795
5687 5692 5698 5703 5708 5713 5718 5723 5729 5734 5738 5742 5746 5751 5755 5759 5763 5766 5770 5773 5776 5779 5781 5784 5786 5788 5790 5792 5793 5795 5796 5797 5798 5799 5800 5800 5800 5800 5800 5799 5799 5798 5796 5795 5794 5792 5791 5789 5787
5678 5683 5689 5695 5699 5704 5710 5716 5722 5725 5730 5735 5739 5743 5748 5752 5756 5759 5763 5766 5769 5772 5775 5777 5780 5782 5783 5785 5787 5788 5789 5790 5791 5792 5792 5793 5793 5793 5793 5792 5791 5790 5789 5787 5786 5784 5783 5781 5779
5669 5675 5681 5688 5692 5696 5701 5708 5714 5717 5722 5727 5732 5736 5741 5745 5749 5753 5756 5759 5762 5765 5768 5770 5773 5775 5777 5778 5780 5781 5782 5783 5784 5785 5786 5786 5786 5786 5785 5784 5783 5782 5781 5779 5778 5776 5774 5772 5771
5663 5669 5675 5680 5684 5688 5693 5700 5705 5709 5714 5719 5724 5729 5733 5737 5742 5745 5749 5752 5755 5758 5761 5763 5766 5768 5769 5771 5773 5774 5775 5776 5777 5778 5779 5779 5779 5778 5778 5777 5775 5774 5773 5772 5770 5768 5766 5764 5763
5656 5661 5666 5672 5675 5680 5685 5691 5696 5701 5706 5711 5716 5721 5725 5730 5734 5738 5741 5745 5748 5751 5754 5757 5759 5761 5762 5764 5766 5767 5768 5769 5770 5771 5771 5771 5771 5771 5770 5769 5768 5766 5765 5764 5762 5760 5758 5756 5754
5647 5652 5657 5663 5667 5671 5677 5682 5688 5692 5698 5703 5708 5713 5718 5722 5726 5730 5734 5737 5741 5744 5747 5749 5752 5754 5756 5757 5759 5760 5761 5762 5763 5763 5764 5764 5764 5763 5763 5761 5760 5759 5757 5756 5754 5752 5750 5748 5746
5639 5644 5650 5655 5659 5663 5668 5674 5680 5684 5689 5695 5700 5705 5709 5714 5718 5723 5726 5730 5733 5737 5739 5742 5744 5746 5748 5750 5751 5753 5754 5755 5756 5757 5757 5757 5756 5756 5755 5753 5752 5751 5749 5748 5746 5744 5742 5740 5737
5632 5637 5642 5646 5651 5655 5660 5665 5673 5677 5682 5687 5692 5697 5701 5706 5710 5714 5718 5722 5726 5729 5731 5734 5736 5739 5741 5742 5744 5746 5747 5748 5749 5749 5749 5749 5749 5748 5747 5746 5744 5743 5741 5739 5737 5735 5733 5731 5729
5625 5630 5634 5638 5642 5647 5652 5657 5665 5669 5674 5679 5684 5689 5693 5697 5702 5706 5710 5714 5718 5721 5724 5726 5729 5731 5733 5735 5737 5738 5739 5740 5741 5742 5742 5741 5741 5740 5739 5738 5736 5734 5733 5731 5729 5727 5725 5723 5720
5618 5623 5626 5630 5634 5639 5645 5649 5656 5662 5667 5672 5676 5680 5685 5689 5693 5697 5702 5706 5709 5713 5716 5718 5721 5724 5726 5728 5729 5731 5732 5733 5734 5734 5734 5734 5733 5732 5731 5729 5728 5726 5724 5723 5721 5719 5717 5715 5712
5611 5616 5620 5622 5626 5632 5638 5641 5649 5655 5660 5664 5668 5672 5676 5681 5685 5689 5693 5698 5701 5705 5708 5711 5714 5716 5718 5720 5722 5723 5724 5725 5726 5726 5726 5726 5725 5724 5723 5721 5719 5718 5716 5714 5712 5710 5708 5706 5704
5606 5610 5615 5618 5621 5626 5631 5635 5643 5648 5652 5656 5660 5664 5668 5673 5677 5681 5685 5689 5693 5697 5700 5703 5705 5708 5710 5712 5714 5715 5716 5717 5718 5718 5718 5718 5717 5716 5714 5713 5711 5709 5707 5706 5704 5702 5700 5698 5696
5600 5604 5609 5612 5616 5620 5624 5630 5636 5641 5644 5648 5652 5656 5660 5665 5669 5673 5677 5681 5685 5688 5691 5694 5697 5700 5702 5704 5706 5707 5708 5709 5710 5710 5709 5709 5708 5707 5706 5704 5702 5700 5699 5697 5696 5694 5692 5690 5688
5596 5600 5603 5606 5610 5613 5618 5623 5629 5634 5637 5641 5644 5648 5652 5656 5660 5664 5668 5672 5676 5679 5683 5686 5688 5691 5694 5696 5698 5699 5700 5701 5701 5701 5701 5700 5700 5698 5697 5696 5694 5692 5691 5689 5688 5686 5684 5682 5680
5591 5594 5597 5600 5604 5608 5612 5620 5623 5626 5630 5633 5637 5640 5644 5648 5652 5656 5660 5663 5667 5671 5674 5677 5680 5683 5685 5687 5689 5690 5691 5692 5692 5693 5692 5692 5691 5690 5689 5688 5686 5684 5683 5681 5680 5678 5676 5674 5672
5585 5588 5592 5596 5599 5602 5606 5615 5615 5619 5622 5626 5629 5633 5636 5640 5644 5647 5651 5655 5658 5662 5665 5668 5671 5674 5676 5678 5680 5681 5682 5683 5683 5684 5683 5683 5682 5682 5681 5679 5678 5676 5675 5673 5671 5670 5668 5666 5664